EW7890 Hamilton BM current weather conditions

sailwx.info

Wind from 280 at 0 knots gusting 5

Air temperature 15.6° C
Dewpoint 11.1° C

Last reported at 2019-Jan-22 02:01 UTC.
Time now 2019-Jan-22 02:53 UTC

Location: N 32°18' W 064°46'.
View on Google Maps.

See reports from other nearby stations

  
Tides and Currents Weather Stations Pressure Air Temp Water Temp Dewpoint Dewpoint Depression Visibility Wind Speed Wind Dir Waves Ship Positions
date/time (UTC)wind fromknots sea level pressurealtimeterstation pressurevisibilityair tempwater tempwave heightnotes
2019-Jan-22 02:01 280 0 gusting 5 15.6
2019-Jan-22 01:45 327 1 gusting 9 15.6
2019-Jan-22 01:30 295 0 gusting 5 15.6
2019-Jan-22 01:15 292 15.6
2019-Jan-22 01:00 282 0 gusting 4 15.0
2019-Jan-22 00:45 330 0 gusting 6 15.6
2019-Jan-22 00:30 311 1 gusting 6 16.7
2019-Jan-22 00:15 340 0 gusting 6 16.1
2019-Jan-22 00:00 340 0 gusting 5 16.7
2019-Jan-21 23:45 022 1 gusting 5 16.7
2019-Jan-21 23:30 275 0 gusting 6 16.7
2019-Jan-21 23:15 347 1 gusting 6 16.7
2019-Jan-21 23:00 335 0 gusting 2 16.7
2019-Jan-21 22:45 295 16.7
2019-Jan-21 22:30 234 1 gusting 6 16.7
2019-Jan-21 22:15 041 1 gusting 7 16.7
2019-Jan-21 22:00 295 0 gusting 6 16.7
2019-Jan-21 21:47 321 0 gusting 4 17.2
2019-Jan-21 21:31 200 0 gusting 3 17.2
2019-Jan-21 21:16 340 17.2
2019-Jan-21 21:02 354 0 gusting 4 17.8
2019-Jan-21 20:46 281 0 gusting 3 17.8
2019-Jan-21 20:32 238 0 gusting 6 18.3
2019-Jan-21 20:16 295 0 gusting 3 18.3
2019-Jan-21 20:01 335 1 gusting 6 18.3
2019-Jan-21 19:46 289 18.9
2019-Jan-21 19:31 292 19.4
2019-Jan-21 19:16 278 1 gusting 8 19.4
2019-Jan-21 19:01 259 0 gusting 3 19.4
2019-Jan-21 18:46 258 0 gusting 3 19.4
2019-Jan-21 18:32 174 0 gusting 7 20.0
2019-Jan-21 18:15 360 20.6
2019-Jan-21 18:01 292 20.6
2019-Jan-21 17:46 342 20.6
2019-Jan-21 17:30 237 1 gusting 6 20.6
2019-Jan-21 17:16 101 20.6
2019-Jan-21 17:00 307 0 gusting 4 20.6
2019-Jan-21 16:46 349 20.0
2019-Jan-21 16:31 247 0 gusting 4 20.6
2019-Jan-21 16:16 062 0 gusting 4 20.0
2019-Jan-21 16:00 312 21.1
2019-Jan-21 15:45 309 0 gusting 6 21.1
2019-Jan-21 15:30 118 0 gusting 6 20.6
2019-Jan-21 15:16 302 20.6
2019-Jan-21 15:00 316 1 gusting 6 20.6
2019-Jan-21 14:46 135 0 gusting 3 20.0
2019-Jan-21 14:30 286 19.4
2019-Jan-21 14:15 320 18.9
2019-Jan-21 14:00 323 0 gusting 7 18.3
2019-Jan-21 13:45 333 17.8
2019-Jan-21 13:30 335 18.3
2019-Jan-21 13:15 140 18.3
2019-Jan-21 13:00 116 17.8
2019-Jan-21 12:46 264 17.8
2019-Jan-21 12:30 148 17.8
2019-Jan-21 12:15 148 17.2
2019-Jan-21 12:00 147 17.2
2019-Jan-21 11:45 122 17.2
2019-Jan-21 11:30 124 16.7
2019-Jan-21 11:15 185 16.7
2019-Jan-21 11:00 084 17.2
2019-Jan-21 10:45 195 0 gusting 5 17.8
2019-Jan-21 10:32 039 4 gusting 11 18.9
2019-Jan-21 10:16 290 1 gusting 6 19.4
2019-Jan-21 10:01 143 20.6
2019-Jan-21 09:48 328 0 gusting 5 20.6
2019-Jan-21 09:31 229 0 gusting 11 21.1
2019-Jan-21 09:16 184 2 gusting 10 21.1
2019-Jan-21 09:01 153 0 gusting 10 21.1
2019-Jan-21 08:46 283 1 gusting 8 21.1
2019-Jan-21 08:16 221 2 gusting 8 21.1
2019-Jan-21 08:02 156 2 gusting 11 21.1
2019-Jan-21 07:46 068 1 gusting 13 21.1
2019-Jan-21 07:31 112 0 gusting 10 21.1
2019-Jan-21 07:16 194 2 gusting 6 21.1
2019-Jan-21 07:02 224 1 gusting 6 21.1
2019-Jan-21 06:46 335 1 gusting 10 21.1
2019-Jan-21 06:31 121 1 gusting 6 21.1
2019-Jan-21 06:15 136 1 gusting 6 21.1
2019-Jan-21 06:00 139 1 gusting 7 21.1
2019-Jan-21 05:46 186 1 gusting 7 21.1
2019-Jan-21 05:30 233 2 gusting 6 21.1
2019-Jan-21 05:15 228 1 gusting 7 21.1
2019-Jan-21 05:00 251 1 gusting 6 21.1
2019-Jan-21 04:45 219 2 gusting 7 21.1
2019-Jan-21 04:30 142 3 gusting 9 21.1
2019-Jan-21 04:15 229 1 gusting 9 21.1
2019-Jan-21 04:00 224 1 gusting 5 21.1
2019-Jan-21 03:45 233 2 gusting 12 21.1
2019-Jan-21 03:30 134 1 gusting 7 21.1
2019-Jan-21 03:15 167 1 gusting 10 21.1
2019-Jan-21 03:00 023 1 gusting 13 20.6
2019-Jan-21 02:45 192 1 gusting 10 20.6
2019-Jan-21 02:30 177 1 gusting 7 20.6
2019-Jan-21 02:15 120 1 gusting 7 20.6
2019-Jan-21 02:02 180 2 gusting 11 20.6
2019-Jan-21 01:47 226 2 gusting 8 20.6
2019-Jan-21 01:31 209 1 gusting 10 20.6
2019-Jan-21 01:16 322 2 gusting 8 20.6
2019-Jan-21 01:02 236 1 gusting 11 20.6
2019-Jan-21 00:46 087 1 gusting 8 20.6
2019-Jan-21 00:32 105 2 gusting 11 20.6
2019-Jan-21 00:16 142 1 gusting 10 20.6
2019-Jan-21 00:01 207 2 gusting 7 20.6
2019-Jan-20 23:46 198 1 gusting 10 20.6
2019-Jan-20 23:32 153 1 gusting 8 20.6
2019-Jan-20 23:16 235 1 gusting 6 20.6
2019-Jan-20 23:01 245 0 gusting 8 20.6
2019-Jan-20 22:45 301 1 gusting 7 20.6
2019-Jan-20 22:30 179 2 gusting 8 20.6
2019-Jan-20 22:15 158 1 gusting 6 20.6
2019-Jan-20 22:00 251 1 gusting 6 20.6
2019-Jan-20 21:46 277 0 gusting 9 20.6
2019-Jan-20 21:31 049 1 gusting 8 20.6
2019-Jan-20 21:16 104 1 gusting 6 20.6
2019-Jan-20 21:01 046 1 gusting 8 20.6
2019-Jan-20 20:45 236 2 gusting 10 20.6
2019-Jan-20 20:30 268 1 gusting 9 21.1
2019-Jan-20 20:15 153 1 gusting 7 21.1
2019-Jan-20 20:00 135 2 gusting 11 21.1
2019-Jan-20 19:45 224 2 gusting 8 21.1
2019-Jan-20 19:30 164 1 gusting 11 21.1
2019-Jan-20 19:16 222 1 gusting 7 21.7
2019-Jan-20 19:00 103 1 gusting 11 21.1
2019-Jan-20 18:46 101 2 gusting 9 21.7
2019-Jan-20 18:30 031 1 gusting 10 21.7
2019-Jan-20 18:15 170 1 gusting 6 21.7
2019-Jan-20 18:00 293 1 gusting 9 21.7
2019-Jan-20 17:45 221 1 gusting 10 21.7
2019-Jan-20 17:30 249 1 gusting 8 21.7
2019-Jan-20 17:15 153 1 gusting 6 22.2
2019-Jan-20 17:00 235 1 gusting 9 21.7
2019-Jan-20 16:45 278 1 gusting 7 22.2
2019-Jan-20 16:30 056 1 gusting 7 21.7
2019-Jan-20 16:15 111 1 gusting 7 22.2
2019-Jan-20 16:00 117 0 gusting 6 22.2
2019-Jan-20 15:45 290 0 gusting 6 22.2
2019-Jan-20 15:31 139 0 gusting 6 21.7
2019-Jan-20 15:17 108 1 gusting 6 21.7
2019-Jan-20 15:03 282 1 gusting 7 21.7
2019-Jan-20 14:47 162 0 gusting 6 21.7
2019-Jan-20 14:31 128 0 gusting 7 21.1
2019-Jan-20 14:16 221 2 gusting 6 21.1
2019-Jan-20 14:01 120 21.1
2019-Jan-20 13:47 229 1 gusting 7 21.1
2019-Jan-20 13:31 118 1 gusting 7 20.6
2019-Jan-20 13:16 129 0 gusting 3 20.6
2019-Jan-20 13:01 282 0 gusting 4 20.0
2019-Jan-20 12:46 179 0 gusting 5 20.0
2019-Jan-20 12:31 124 0 gusting 6 19.4
2019-Jan-20 12:16 264 19.4
2019-Jan-20 12:00 106 0 gusting 4 18.9
2019-Jan-20 11:45 191 18.3
2019-Jan-20 11:30 124 0 gusting 4 18.3
2019-Jan-20 11:15 117 18.3
2019-Jan-20 11:00 316 18.3
2019-Jan-20 10:45 144 18.3
2019-Jan-20 10:30 146 0 gusting 6 17.8
2019-Jan-20 10:15 223 0 gusting 3 17.8
2019-Jan-20 10:01 237 17.8
2019-Jan-20 09:45 139 0 gusting 9 18.3
2019-Jan-20 09:30 196 17.8
2019-Jan-20 09:15 167 17.8
2019-Jan-20 09:00 125 17.8
2019-Jan-20 08:45 172 17.8
2019-Jan-20 08:30 190 17.8
2019-Jan-20 08:15 174 17.2
2019-Jan-20 08:00 193 17.2
2019-Jan-20 07:45 129 17.2
2019-Jan-20 07:30 103 17.2
2019-Jan-20 07:15 143 17.2
2019-Jan-20 07:02 098 17.2
2019-Jan-20 06:48 219 16.7
2019-Jan-20 06:31 151 16.7
2019-Jan-20 06:18 145 16.1
2019-Jan-20 06:02 140 16.1
2019-Jan-20 05:47 238 15.6
2019-Jan-20 05:31 193 15.0
2019-Jan-20 05:16 125 14.4
2019-Jan-20 05:01 159 14.4
2019-Jan-20 04:46 150 13.9
2019-Jan-20 04:31 184 13.9
2019-Jan-20 04:16 092 13.3
2019-Jan-20 04:00 091 13.3
2019-Jan-20 03:46 091 13.3
2019-Jan-20 03:31 091 12.8
2019-Jan-20 03:16 091 13.3
2019-Jan-20 03:00 091 13.3
2019-Jan-20 02:45 091 13.3
2019-Jan-20 02:30 091 13.9
2019-Jan-20 02:15 091 13.9
2019-Jan-20 02:00 319 12.8